Regional Weather Roundup
Issued by NWS Midland/Odessa, TX

Current Version | Previous Version | Text Only | Print | Product List | Glossary On
Versions: 1 2 3 4 5 6 7 8 9 10 11 12 13 14 15 16 17 18 19 20 21 22 23 24 25 26 27 28 29 30 31 32 33 34 35 36 37 38 39 40 41 42 43 44 45 46 47 48 49 50
117
ASUS44 KMAF 130910
RWRMAF
MIDLAND AREA WEATHER ROUNDUP
NATIONAL WEATHER SERVICE MIDLAND TX
300 AM CST FRI DEC 13 2019

...IN SOUTHWEST TEXAS AND SOUTHEAST NEW MEXICO...

CITY           SKY/WX    TMP DP  RH WIND       PRES   REMARKS
ALPINE         CLEAR     51  28  41 W15G22    30.18S
ANDREWS        FAIR      47  34  62 NW7       30.02R
ARTESIA        CLOUDY    46  37  71 NW9       30.07
BIG SPRING     CLEAR     43  39  85 SW6       29.98R WCI  40
CARLSBAD       CLOUDY    56  33  42 NW8G18    30.03S
DRYDEN           N/A     51  37  58 W12       30.00F
FORT STOCKTON  CLEAR     49  36  61 SW13      30.03F
GUAD PASS      MOCLDY    39  35  86 SW21      30.13F WCI  29
HOBBS          CLEAR     50  34  53 W20G26    30.02R
LAMESA         NOT AVBL
MARFA          CLEAR     49  29  46 VRB5G18   30.17S
MIDLAND AIRPK  CLEAR     51  37  58 W15       30.00R
MIDLAND INTL   CLEAR     50  38  63 W14       29.99R
ODESSA         CLEAR     45  37  73 NW7       30.01R
PECOS          CLEAR     54  34  46 W20       30.03R
PRESIDIO       FAIR      45  42  89 CALM      30.16S
SEMINOLE       CLEAR     44  34  69 W10       30.03F WCI  38
SNYDER         CLEAR     41  37  84 SW8       29.94F WCI  36
WINK           CLEAR     45  38  76 CALM      30.01R
$$
...OTHER STATIONS IN TEXAS...

CITY           SKY/WX    TMP DP  RH WIND       PRES   REMARKS
ABILENE        CLEAR     48  41  76 SW9       29.92F
AMARILLO       CLEAR     34  24  67 W6        29.92F WCI  29
AUSTIN         CLEAR     38  36  92 CALM      30.00F
BROWNSVILLE    FOG       54  52  93 W3        30.03F VSB 3/4
CORPUS CHRISTI FOG       60  59  96 CALM      30.03F VSB 1/8
DALLAS FTW     CLEAR     41  40  96 SE6       29.91F WCI  37
DEL RIO        CLEAR     46  37  71 E6        30.01F
EL PASO        PTCLDY    43  37  79 NW3       30.14S
HOUSTON INT    MOCLDY    56  49  77 S6        30.01F
LUBBOCK        PTCLDY    35  26  69 W12       29.94F WCI  27
SAN ANGELO     CLEAR     48  40  73 SW20      29.97F
SAN ANTONIO    PTCLDY    40  35  83 NW3       30.03S
WACO           CLEAR     47  42  83 S12       29.96F
WICHITA FALLS  PTCLDY    34  31  88 CALM      29.92F
$$
...OTHER LOCATIONS IN NEW MEXICO...

CITY           SKY/WX    TMP DP  RH WIND       PRES   REMARKS
ALAMOGORDO     PTCLDY    37  32  81 N3        30.15
ALBUQUERQUE    PTCLDY    35  24  64 S7        30.15R WCI  29
CANNON AFB     PTCLDY    43  24  46 W12       29.99S WCI  37
CLOVIS         PTCLDY    38  26  62 W9        29.99R WCI  31
HOLLOMAN AFB   PTCLDY    34  29  83 N6        30.14F WCI  29
ROSWELL        CLOUDY    47  32  56 NW8       30.05F
RUIDOSO        CLEAR     46  25  42 NW21G40   30.12S WCI  39
SANTA FE       PTCLDY    34  23  64 CALM      30.12F
TRUTH OR CONSE PTCLDY    49  31  49 N5        30.15S
TUCUMCARI      PTCLDY    34  24  67 W13       29.95F WCI  25
$$




USA.gov is the U.S. government's official web portal to all federal, state and local government web resources and services.